Weather History for KGDV - September, 2014

Change the Weather History Date:

Wednesday, September 10, 2014

  Actual Average Record
Temperature  
Mean Temperature 38 °F -  
Max Temperature 39 °F 73 °F 91 °F (2012)
Min Temperature 37 °F 47 °F 37 °F (2014)
Degree Days  
Heating Degree Days 27    
Moisture  
Dew Point 36 °F    
Average Humidity 91    
Maximum Humidity 100    
Minimum Humidity 81    
Precipitation  
Precipitation 0.01 in - - ()
Sea Level Pressure  
Sea Level Pressure 30.28 in    
Wind  
Wind Speed 12 mph (NE)    
Max Wind Speed 15 mph    
Max Gust Speed 20 mph    
Visibility 9 miles    
Events      
Averages and records for this station are not official NWS values.
T = Trace of Precipitation, MM = Missing Value Source: NWS Daily Summary

Daily Weather History Graph

Daily Weather History Graph

Search for Another Location

Airport or City:

Trip Planner

Search our weather history database for the weather conditions in past years. The results will help you decide how hot, cold, wet, or windy it might be!

Date:

Astronomy

Sep. 10, 2014 Rise Set
Actual Time 6:30 AM MDT 7:21 PM MDT
Civil Twilight 5:59 AM MDT 7:51 PM MDT
Nautical Twilight 5:22 AM MDT 8:28 PM MDT
Astronomical Twilight 4:43 AM MDT 9:07 PM MDT
Moon 8:10 PM MDT (9/10) 8:30 AM MDT (9/10)
Length of Visible Light 13h 52m
Length of Day
12h 50m
Waning Gibbous, 96% of the Moon is Illuminated
Sep 10
Waning Gibbous
Sep 15
Last Quarter
Sep 24
New
Oct 1
First Quarter
Oct 8
Full

Hourly Weather History & Observations

Time (MDT) Temp. Windchill Dew Point Humidity Pressure Visibility Wind Dir Wind Speed Gust Speed Precip Events Conditions
12:15 AM 39.2 °F 31.2 °F 37.4 °F 93% 30.20 in 7.0 mi NNE 13.8 mph - N/A   Overcast
12:35 AM 39.2 °F 31.6 °F 37.4 °F 93% 30.20 in 8.0 mi NE 12.7 mph - N/A   Overcast
12:55 AM 39.2 °F 31.2 °F 37.4 °F 93% 30.21 in 6.0 mi NE 13.8 mph - N/A   Overcast
1:15 AM 39.2 °F 30.8 °F 37.4 °F 93% 30.21 in 9.0 mi NE 15.0 mph - N/A   Overcast
1:35 AM 39.2 °F 32.0 °F 37.4 °F 93% 30.21 in 10.0 mi NE 11.5 mph - N/A   Overcast
1:55 AM 39.2 °F 31.6 °F 37.4 °F 93% 30.21 in 5.0 mi NE 12.7 mph - N/A   Overcast
2:15 AM 39.2 °F 33.0 °F 37.4 °F 93% 30.21 in 5.0 mi NE 9.2 mph - N/A   Overcast
2:35 AM 39.2 °F 31.6 °F 37.4 °F 93% 30.20 in 5.0 mi NE 12.7 mph - N/A   Overcast
2:55 AM 39.2 °F 32.0 °F 37.4 °F 93% 30.21 in 8.0 mi NNE 11.5 mph - N/A   Overcast
3:15 AM 39.2 °F 32.0 °F 37.4 °F 93% 30.21 in 5.0 mi NE 11.5 mph - N/A   Overcast
3:35 AM 39.2 °F 31.6 °F 37.4 °F 93% 30.21 in 8.0 mi NE 12.7 mph - N/A   Overcast
3:55 AM 39.2 °F 32.5 °F 37.4 °F 93% 30.22 in 4.0 mi NE 10.4 mph - N/A   Overcast
4:15 AM 39.2 °F 32.5 °F 37.4 °F 93% 30.22 in 7.0 mi NE 10.4 mph - N/A   Overcast
4:35 AM 39.2 °F 31.6 °F 37.4 °F 93% 30.22 in 8.0 mi NE 12.7 mph - N/A   Overcast
4:55 AM 39.2 °F 32.5 °F 37.4 °F 93% 30.22 in 10.0 mi ENE 10.4 mph - N/A   Overcast
5:15 AM 39.2 °F 32.5 °F 37.4 °F 93% 30.22 in 10.0 mi NE 10.4 mph - N/A   Overcast
5:35 AM 39.2 °F 32.5 °F 37.4 °F 93% 30.23 in 10.0 mi NE 10.4 mph - 0.01 in   Overcast
5:55 AM 39.2 °F 32.0 °F 37.4 °F 93% 30.23 in 10.0 mi NE 11.5 mph 17.3 mph 0.01 in   Overcast
6:15 AM 39.2 °F 32.5 °F 37.4 °F 93% 30.23 in 10.0 mi NE 10.4 mph - N/A   Overcast
6:35 AM 39.2 °F 32.5 °F 37.4 °F 93% 30.23 in 10.0 mi ENE 10.4 mph - N/A   Overcast
6:55 AM 39.2 °F 31.6 °F 37.4 °F 93% 30.24 in 10.0 mi NE 12.7 mph - N/A   Overcast
7:15 AM 39.2 °F 31.6 °F 37.4 °F 93% 30.24 in 10.0 mi NE 12.7 mph - N/A   Overcast
7:35 AM 39.2 °F 32.0 °F 35.6 °F 87% 30.25 in 10.0 mi ENE 11.5 mph - N/A   Overcast
7:55 AM 39.2 °F 32.0 °F 37.4 °F 93% 30.24 in 10.0 mi ENE 11.5 mph - N/A   Overcast
8:15 AM 39.2 °F 31.2 °F 37.4 °F 93% 30.23 in 10.0 mi ENE 13.8 mph - N/A   Overcast
8:35 AM 39.2 °F 31.2 °F 35.6 °F 87% 30.24 in 10.0 mi ENE 13.8 mph - N/A   Overcast
8:55 AM 39.2 °F 30.8 °F 37.4 °F 93% 30.24 in 10.0 mi ENE 15.0 mph - N/A   Overcast
9:35 AM 39.2 °F 32.0 °F 35.6 °F 87% 30.26 in 10.0 mi NE 11.5 mph - N/A   Overcast
9:55 AM 39.2 °F 31.6 °F 37.4 °F 93% 30.25 in 10.0 mi NE 12.7 mph - N/A   Overcast
10:15 AM 39.2 °F 32.5 °F 35.6 °F 87% 30.26 in 10.0 mi NE 10.4 mph - N/A   Overcast
10:35 AM 39.2 °F 30.8 °F 37.4 °F 93% 30.26 in 10.0 mi ENE 15.0 mph - N/A   Overcast
10:55 AM 39.2 °F 32.0 °F 33.8 °F 81% 30.26 in 10.0 mi ENE 11.5 mph - N/A   Overcast
11:15 AM 39.2 °F 32.0 °F 33.8 °F 81% 30.27 in 10.0 mi ENE 11.5 mph - N/A   Overcast
11:35 AM 39.2 °F 31.6 °F 35.6 °F 87% 30.27 in 9.0 mi NE 12.7 mph - N/A   Overcast
11:55 AM 39.2 °F 32.0 °F 33.8 °F 81% 30.27 in 10.0 mi ENE 11.5 mph - N/A   Overcast
12:15 PM 39.2 °F 32.0 °F 33.8 °F 81% 30.28 in 10.0 mi ENE 11.5 mph - N/A   Overcast
12:35 PM 39.2 °F 32.0 °F 33.8 °F 81% 30.28 in 10.0 mi ENE 11.5 mph - N/A   Overcast
12:55 PM 37.4 °F 29.8 °F 33.8 °F 87% 30.28 in 10.0 mi NE 11.5 mph - N/A   Overcast
1:15 PM 37.4 °F 29.8 °F 33.8 °F 87% 30.28 in 10.0 mi NNE 11.5 mph - N/A   Overcast
1:35 PM 37.4 °F 29.8 °F 35.6 °F 93% 30.27 in 10.0 mi NNE 11.5 mph - N/A   Overcast
1:55 PM 37.4 °F 29.8 °F 35.6 °F 93% 30.27 in 10.0 mi NNE 11.5 mph - N/A   Overcast
2:15 PM 39.2 °F 32.5 °F 37.4 °F 93% 30.27 in 10.0 mi NNE 10.4 mph - N/A   Overcast
2:35 PM 39.2 °F 31.6 °F 37.4 °F 93% 30.28 in 10.0 mi NE 12.7 mph - N/A   Overcast
2:55 PM 39.2 °F 31.6 °F 37.4 °F 93% 30.28 in 9.0 mi NE 12.7 mph - N/A   Overcast
3:15 PM 39.2 °F 32.5 °F 37.4 °F 93% 30.29 in 9.0 mi NE 10.4 mph - N/A   Overcast
3:35 PM 39.2 °F 31.2 °F 37.4 °F 93% 30.29 in 8.0 mi NE 13.8 mph - N/A   Overcast
3:55 PM 39.2 °F 31.2 °F 37.4 °F 93% 30.30 in 9.0 mi ENE 13.8 mph - N/A   Overcast
4:15 PM 39.2 °F 31.6 °F 37.4 °F 93% 30.30 in 10.0 mi ENE 12.7 mph - N/A   Overcast
4:35 PM 39.2 °F 32.5 °F 37.4 °F 93% 30.30 in 10.0 mi ENE 10.4 mph - N/A   Overcast
4:55 PM 39.2 °F 30.8 °F 35.6 °F 87% 30.31 in 7.0 mi NE 15.0 mph - N/A   Overcast
5:15 PM 39.2 °F 30.8 °F 37.4 °F 93% 30.31 in 10.0 mi NE 15.0 mph - N/A   Overcast
5:35 PM 39.2 °F 32.5 °F 35.6 °F 87% 30.32 in 10.0 mi ENE 10.4 mph - N/A   Overcast
5:55 PM 39.2 °F 31.2 °F 37.4 °F 93% 30.33 in 6.0 mi ENE 13.8 mph - N/A   Overcast
6:15 PM 39.2 °F 31.2 °F 37.4 °F 93% 30.33 in 9.0 mi ENE 13.8 mph 19.6 mph N/A   Overcast
6:35 PM 39.2 °F 32.0 °F 35.6 °F 87% 30.33 in 10.0 mi NE 11.5 mph - N/A   Overcast
6:55 PM 37.4 °F 30.3 °F 35.6 °F 93% 30.34 in 10.0 mi NE 10.4 mph - N/A   Overcast
7:15 PM 39.2 °F 32.5 °F 35.6 °F 87% 30.35 in 10.0 mi NE 10.4 mph - N/A   Overcast
7:35 PM 37.4 °F 29.3 °F 35.6 °F 93% 30.35 in 10.0 mi NE 12.7 mph 16.1 mph N/A   Overcast
7:55 PM 37.4 °F 29.3 °F 37.4 °F 100% 30.36 in 10.0 mi NE 12.7 mph - N/A   Overcast
8:15 PM 37.4 °F 30.3 °F 35.6 °F 93% 30.36 in 10.0 mi NE 10.4 mph - N/A   Overcast
8:35 PM 37.4 °F 30.8 °F 35.6 °F 93% 30.37 in 10.0 mi NE 9.2 mph - N/A   Overcast
8:55 PM 37.4 °F 30.3 °F 35.6 °F 93% 30.37 in 10.0 mi NE 10.4 mph - N/A   Mostly Cloudy
9:15 PM 37.4 °F 32.1 °F 35.6 °F 93% 30.39 in 10.0 mi NNE 6.9 mph - N/A   Mostly Cloudy
9:35 PM 37.4 °F 32.1 °F 35.6 °F 93% 30.40 in 10.0 mi NNE 6.9 mph - N/A   Mostly Cloudy
9:55 PM 37.4 °F 31.4 °F 35.6 °F 93% 30.40 in 10.0 mi North 8.1 mph - N/A   Overcast
10:15 PM 37.4 °F 31.4 °F 35.6 °F 93% 30.41 in 10.0 mi North 8.1 mph - N/A   Overcast
10:35 PM 37.4 °F 32.8 °F 35.6 °F 93% 30.41 in 10.0 mi North 5.8 mph - N/A   Overcast
10:55 PM 37.4 °F 32.8 °F 35.6 °F 93% 30.42 in 10.0 mi North 5.8 mph - N/A   Overcast
11:15 PM 37.4 °F 32.1 °F 35.6 °F 93% 30.42 in 10.0 mi North 6.9 mph - N/A   Overcast
11:35 PM 37.4 °F 32.8 °F 35.6 °F 93% 30.43 in 10.0 mi North 5.8 mph - N/A   Overcast
11:55 PM 37.4 °F 32.8 °F 35.6 °F 93% 30.42 in 10.0 mi North 5.8 mph - N/A   Overcast